Temp
-5 -5 -4 -7 -8 -8 -8 -7 -6 -7 -7 -8 -8 -8 -7 -7 -7 -8 -7 -7 -8 -8 -8 -8 -8 -8 -8 -7 -7 -8 -8 -8 -8 -8 -7 -7 -7 -7 -8 -7 -8 -8 -8 -7
-5 -4 -7 -9 -9 -8 -9 -8 -7 -7 -7 -8 -8 -8 -8 -7 -7 -7 -8 -7 -8 -8 -8 -8 -8 -8 -8 -8 -7 -7 -8 -7 -7 -8 -8 -8 -7 -7 -7 -8 -7 -8 -8 -7
-6 -6 -9 -10 -10 -9 -9 -8 -8 -8 -8 -8 -8 -8 -8 -8 -7 -7 -7 -8 -8 -8 -8 -8 -8 -8 -8 -8 -8 -8 -8 -7 -7 -7 -8 -8 -8 -7 -7 -7 -8 -8 -8 -8
-7 -9 -10 -11 -11 -10 -10 -10 -9 -9 -8 -8 -8 -8 -8 -8 -8 -7 -6 -7 -7 -7 -8 -8 -8 -8 -8 -7 -7 -8 -8 -8 -7 -7 -8 -8 -8 -8 -8 -8 -8 -8 -8 -8
-10 -11 -11 -11 -11 -11 -10 -10 -10 -9 -9 -9 -8 -8 -7 -8 -8 -8 -7 -6 -6 -7 -8 -8 -8 -8 -8 -8 -8 -8 -9 -8 -7 -7 -8 -8 -8 -8 -9 -8 -8 -8 -8 -8
-11 -12 -12 -12 -11 -11 -11 -11 -11 -10 -10 -10 -8 -8 -8 -8 -8 -7 -7 -7 -7 -7 -8 -8 -8 -8 -8 -8 -8 -9 -8 -8 -7 -7 -8 -8 -9 -9 -8 -8 -8 -8 -8 -8
-12 -12 -12 -12 -11 -11 -11 -11 -11 -11 -11 -10 -9 -9 -8 -8 -8 -7 -6 -7 -7 -7 -8 -8 -7 -8 -8 -8 -8 -9 -8 -8 -7 -8 -8 -8 -8 -8 -8 -6 -7 -7 -8 -8
-13 -12 -12 -12 -12 -11 -11 -12 -12 -11 -10 -10 -10 -9 -8 -8 -8 -7 -7 -6 -6 -6 -7 -8 -7 -7 -8 -8 -8 -8 -8 -7 -8 -8 -8 -8 -9 -8 -8 -6 -7 -7 -9 -8
-12 -13 -12 -13 -13 -12 -12 -12 -12 -13 -11 -10 -10 -9 -8 -7 -8 -7 -7 -6 -6 -6 -7 -7 -7 -8 -8 -8 -8 -8 -8 -8 -8 -9 -8 -9 -8 -9 -9 -8 -8 -9 -8 -8
-13 -12 -12 -12 -12 -12 -13 -13 -12 -13 -13 -11 -10 -9 -9 -8 -8 -8 -8 -8 -7 -7 -7 -7 -7 -8 -8 -8 -8 -8 -8 -8 -8 -9 -9 -8 -9 -9 -9 -8 -9 -8 -8 -8
-12 -12 -12 -12 -12 -12 -13 -13 -13 -12 -11 -11 -9 -9 -9 -9 -9 -8 -8 -8 -7 -7 -7 -7 -8 -8 -8 -8 -8 -8 -8 -9 -9 -9 -9 -9 -9 -9 -9 -9 -9 -8 -9 -8
-13 -12 -12 -12 -12 -11 -12 -12 -12 -13 -13 -11 -11 -9 -9 -10 -9 -8 -8 -8 -8 -7 -7 -8 -8 -8 -8 -8 -8 -8 -8 -9 -9 -9 -9 -9 -9 -9 -9 -9 -9 -9 -9 -9
-13 -13 -13 -12 -12 -12 -12 -12 -12 -12 -12 -10 -11 -9 -9 -10 -10 -9 -9 -8 -9 -8 -8 -9 -9 -8 -8 -8 -9 -8 -9 -9 -10 -9 -9 -9 -10 -10 -9 -9 -9 -9 -9 -9
-13 -13 -13 -12 -12 -12 -13 -12 -11 -11 -12 -11 -10 -10 -10 -10 -10 -9 -9 -9 -9 -8 -9 -9 -9 -9 -9 -10 -9 -9 -9 -9 -9 -9 -9 -10 -10 -10 -10 -10 -10 -9 -9 -9
-14 -13 -13 -13 -13 -13 -12 -12 -12 -11 -11 -12 -11 -10 -10 -9 -9 -9 -10 -10 -10 -10 -9 -10 -9 -10 -11 -10 -9 -9 -9 -9 -9 -9 -10 -10 -10 -10 -10 -10 -10 -9 -9 -9
-14 -14 -13 -13 -13 -12 -12 -12 -11 -12 -11 -11 -10 -10 -10 -9 -10 -10 -10 -10 -10 -10 -10 -10 -10 -10 -10 -10 -10 -8 -9 -9 -8 -9 -10 -10 -10 -10 -10 -10 -10 -10 -9 -10
-13 -14 -14 -13 -13 -12 -12 -13 -12 -11 -11 -11 -11 -11 -10 -10 -10 -10 -10 -10 -10 -10 -10 -10 -10 -10 -9 -9 -9 -10 -9 -9 -9 -10 -10 -10 -10 -10 -10 -10 -10 -10 -10 -10
-13 -14 -13 -13 -13 -13 -12 -11 -12 -12 -12 -12 -11 -11 -11 -10 -10 -9 -10 -10 -10 -11 -10 -10 -10 -10 -9 -6 -9 -10 -10 -10 -10 -10 -10 -10 -10 -10 -10 -10 -10 -10 -10 -10
-14 -14 -14 -14 -13 -12 -13 -12 -12 -12 -12 -12 -11 -11 -10 -11 -10 -10 -10 -10 -10 -10 -10 -10 -10 -9 -9 -10 -5 -9 -8 -10 -11 -10 -10 -10 -10 -11 -10 -10 -10 -10 -10 -10
-13 -13 -14 -14 -14 -12 -13 -13 -13 -13 -12 -12 -12 -12 -12 -11 -10 -11 -10 -10 -10 -10 -10 -10 -10 -10 -9 -8 -8 -8 -9 -9 -10 -11 -11 -10 -11 -11 -10 -10 -10 -10 -10 -10
-13 -13 -14 -15 -14 -14 -13 -14 -13 -13 -13 -13 -13 -12 -12 -11 -11 -12 -12 -12 -11 -11 -10 -10 -9 -10 -8 -9 -9 -9 -8 -9 -11 -11 -11 -10 -11 -11 -11 -10 -10 -10 -10 -10
-14 -14 -14 -14 -14 -14 -13 -13 -13 -13 -13 -13 -12 -12 -12 -11 -11 -11 -11 -10 -10 -10 -10 -10 -9 -9 -9 -9 -9 -9 -10 -11 -11 -11 -11 -11 -11 -11 -11 -10 -10 -10 -9 -9
-15 -15 -14 -14 -14 -13 -13 -13 -13 -13 -13 -12 -12 -11 -11 -11 -11 -10 -10 -10 -11 -10 -10 -10 -9 -9 -9 -10 -11 -13 -13 -12 -12 -12 -12 -11 -11 -10 -10 -10 -10 -9 -8 -8
-14 -15 -15 -14 -14 -14 -14 -13 -13 -13 -13 -12 -12 -12 -12 -11 -10 -10 -10 -10 -11 -11 -11 -10 -9 -11 -11 -10 -11 -12 -13 -13 -12 -12 -11 -11 -10 -10 -9 -9 -8 -8 -8 -8
-14 -14 -14 -14 -14 -14 -14 -13 -13 -13 -12 -12 -12 -12 -11 -11 -11 -11 -12 -13 -12 -12 -11 -12 -11 -11 -11 -11 -12 -12 -12 -12 -12 -11 -11 -11 -10 -10 -9 -9 -9 -8 -8 -8
-15 -14 -14 -15 -14 -13 -13 -13 -13 -13 -12 -12 -12 -12 -11 -11 -12 -12 -12 -13 -13 -13 -13 -12 -11 -11 -12 -12 -11 -12 -12 -11 -11 -11 -10 -10 -10 -10 -9 -9 -9 -9 -9 -9
Height
5847 5846 5843 5849 5856 5858 5860 5862 5864 5870 5869 5869 5874 5875 5882 5882 5884 5886 5888 5887 5888 5892 5894 5894 5894 5894 5892 5891 5890 5889 5887 5884 5881 5879 5876 5874 5873 5870 5869 5867 5866 5865 5865 5865
5837 5833 5834 5840 5846 5848 5850 5852 5857 5862 5862 5862 5865 5866 5872 5877 5877 5881 5882 5883 5884 5887 5889 5890 5890 5891 5890 5890 5889 5888 5887 5883 5880 5877 5873 5871 5871 5870 5867 5866 5864 5863 5861 5861
5826 5826 5826 5830 5836 5839 5842 5845 5850 5853 5853 5856 5856 5859 5864 5869 5870 5873 5877 5879 5879 5881 5884 5885 5887 5887 5886 5885 5886 5887 5885 5882 5879 5876 5871 5869 5868 5866 5865 5862 5860 5859 5857 5856
5810 5811 5813 5818 5824 5831 5834 5842 5843 5844 5845 5847 5847 5849 5855 5862 5863 5867 5871 5872 5874 5877 5879 5881 5882 5883 5884 5877 5883 5883 5882 5879 5876 5874 5869 5866 5865 5862 5859 5857 5856 5855 5853 5851
5796 5798 5805 5810 5819 5827 5830 5835 5834 5835 5836 5836 5842 5840 5848 5852 5857 5861 5864 5864 5866 5870 5872 5875 5878 5880 5881 5874 5878 5877 5877 5874 5873 5870 5866 5862 5860 5851 5853 5850 5849 5847 5847 5846
5789 5791 5797 5804 5813 5817 5824 5823 5825 5826 5827 5827 5838 5835 5839 5846 5849 5855 5859 5858 5860 5862 5865 5869 5871 5873 5874 5871 5873 5872 5872 5869 5869 5866 5862 5858 5856 5851 5846 5842 5840 5841 5842 5842
5784 5787 5793 5799 5805 5809 5814 5817 5818 5820 5821 5822 5826 5827 5831 5837 5842 5848 5850 5850 5853 5853 5858 5863 5866 5868 5870 5867 5868 5867 5867 5866 5866 5863 5859 5855 5852 5847 5840 5834 5830 5835 5840 5838
5781 5787 5792 5797 5800 5806 5809 5811 5812 5812 5816 5818 5820 5821 5828 5834 5837 5841 5838 5841 5845 5847 5851 5857 5860 5862 5864 5863 5862 5862 5862 5862 5861 5859 5855 5852 5850 5844 5835 5829 5827 5830 5836 5835
5781 5785 5789 5792 5794 5799 5800 5803 5805 5806 5809 5810 5815 5818 5823 5829 5829 5832 5831 5834 5838 5842 5847 5852 5854 5856 5858 5858 5857 5857 5856 5857 5857 5854 5852 5849 5847 5844 5838 5831 5830 5834 5834 5832
5781 5783 5787 5789 5791 5792 5791 5795 5800 5800 5799 5803 5807 5811 5815 5823 5823 5828 5830 5830 5833 5837 5842 5847 5848 5850 5851 5852 5851 5851 5851 5852 5853 5851 5849 5848 5845 5842 5840 5836 5834 5834 5834 5833
5779 5781 5784 5786 5789 5790 5791 5790 5795 5794 5797 5799 5805 5808 5814 5817 5819 5822 5827 5828 5831 5834 5838 5841 5842 5844 5845 5845 5844 5845 5846 5847 5848 5847 5847 5845 5843 5842 5841 5839 5835 5834 5837 5837
5775 5776 5776 5779 5780 5782 5785 5787 5789 5788 5793 5795 5797 5801 5809 5811 5813 5817 5822 5824 5827 5830 5832 5834 5836 5837 5839 5839 5839 5839 5839 5841 5842 5843 5842 5842 5841 5841 5840 5838 5836 5834 5835 5836
5772 5770 5772 5774 5777 5776 5776 5778 5781 5784 5784 5789 5793 5797 5803 5803 5807 5809 5813 5815 5821 5825 5827 5827 5829 5832 5833 5834 5834 5833 5833 5833 5833 5837 5837 5838 5839 5839 5839 5837 5834 5833 5832 5832
5765 5766 5766 5769 5770 5769 5771 5774 5776 5776 5780 5787 5788 5792 5798 5800 5802 5804 5806 5810 5813 5815 5817 5821 5824 5824 5826 5826 5827 5827 5826 5827 5825 5830 5832 5833 5835 5836 5834 5834 5833 5832 5829 5828
5756 5759 5762 5764 5761 5761 5763 5766 5768 5773 5776 5780 5785 5789 5794 5794 5796 5796 5801 5803 5807 5809 5810 5810 5806 5816 5816 5818 5820 5821 5819 5821 5825 5823 5825 5828 5830 5830 5828 5828 5829 5827 5825 5823
5750 5750 5754 5760 5757 5756 5757 5757 5760 5766 5770 5773 5779 5783 5786 5787 5789 5792 5795 5796 5800 5802 5805 5806 5805 5806 5803 5809 5815 5813 5813 5817 5819 5817 5820 5823 5824 5823 5822 5821 5822 5820 5819 5817
5744 5745 5747 5751 5753 5750 5749 5746 5749 5756 5763 5769 5772 5774 5775 5779 5783 5786 5789 5793 5794 5796 5796 5797 5799 5794 5793 5795 5797 5806 5807 5807 5807 5812 5815 5815 5816 5816 5815 5814 5815 5814 5813 5811
5737 5738 5741 5743 5745 5743 5742 5744 5750 5750 5757 5763 5766 5769 5770 5772 5775 5778 5781 5786 5788 5788 5789 5790 5786 5788 5780 5744 5775 5787 5793 5794 5798 5801 5806 5807 5807 5809 5809 5808 5807 5806 5806 5803
5733 5734 5736 5736 5739 5741 5742 5733 5742 5747 5755 5759 5761 5762 5763 5765 5768 5771 5775 5777 5778 5779 5780 5781 5774 5775 5762 5766 5744 5763 5768 5774 5782 5789 5797 5799 5801 5801 5802 5801 5799 5797 5796 5794
5727 5729 5731 5732 5733 5736 5737 5733 5740 5745 5750 5752 5754 5754 5754 5755 5759 5760 5765 5770 5770 5772 5773 5774 5771 5762 5755 5759 5734 5741 5762 5764 5774 5785 5789 5792 5794 5794 5796 5794 5791 5790 5788 5786
5720 5722 5725 5728 5729 5731 5735 5737 5740 5743 5748 5746 5747 5748 5749 5751 5752 5754 5757 5761 5763 5763 5763 5765 5764 5760 5755 5741 5741 5748 5754 5758 5769 5781 5784 5786 5785 5785 5786 5786 5784 5782 5780 5778
5715 5719 5721 5725 5727 5730 5733 5734 5737 5738 5738 5739 5741 5742 5744 5745 5747 5748 5749 5753 5754 5755 5754 5755 5755 5749 5748 5743 5739 5746 5752 5759 5767 5772 5774 5776 5777 5777 5776 5775 5773 5772 5770 5768
5712 5715 5718 5722 5724 5726 5727 5728 5729 5730 5730 5730 5732 5734 5736 5737 5738 5739 5741 5743 5742 5744 5745 5746 5745 5740 5740 5740 5738 5745 5752 5760 5763 5765 5768 5770 5768 5766 5764 5761 5757 5756 5757 5756
5709 5711 5713 5717 5719 5720 5721 5722 5723 5723 5725 5725 5727 5726 5726 5727 5727 5730 5730 5731 5732 5734 5736 5740 5735 5734 5736 5739 5743 5749 5751 5753 5757 5760 5761 5760 5758 5755 5751 5748 5745 5746 5746 5744
5705 5706 5709 5711 5713 5716 5717 5717 5717 5716 5717 5718 5718 5717 5717 5716 5716 5717 5720 5721 5723 5726 5730 5730 5731 5736 5737 5739 5740 5743 5746 5748 5750 5751 5750 5747 5744 5743 5740 5738 5736 5736 5736 5734
5702 5704 5705 5706 5709 5711 5712 5712 5712 5713 5713 5713 5712 5712 5713 5710 5709 5712 5715 5718 5719 5721 5723 5725 5728 5731 5733 5734 5736 5737 5738 5738 5738 5738 5736 5733 5732 5731 5731 5729 5728 5728 5729 5724
Wind_Speed
48 50 53 49 43 40 39 39 38 36 34 37 35 39 34 34 31 33 20 15 10 6 7 9 11 14 14 13 15 16 21 21 19 13 9 12 16 15 15 15 15 8 7 9
51 56 55 51 44 43 41 40 40 35 35 40 41 44 38 36 35 31 17 18 11 11 13 10 12 15 16 14 8 15 21 24 19 17 13 12 12 13 17 19 17 17 11 10
49 56 54 50 45 43 41 39 35 34 34 37 48 49 46 42 41 39 27 22 19 17 16 11 12 15 20 20 18 13 19 25 20 17 16 14 12 14 16 20 22 22 17 13
46 55 54 50 48 43 41 29 31 30 36 37 48 55 51 45 42 36 34 27 25 22 20 17 15 21 18 28 19 17 17 24 22 19 17 14 15 19 19 24 28 29 23 17
40 44 45 46 43 39 35 25 29 32 36 40 43 55 51 46 44 39 36 33 27 26 25 21 17 21 19 28 23 23 22 23 20 20 16 17 18 18 28 32 28 28 25 19
28 35 37 37 38 41 34 31 27 33 36 37 46 51 56 47 46 40 34 37 33 31 31 28 20 23 20 28 22 23 24 22 19 17 15 18 20 26 28 30 22 24 18 14
21 24 24 31 33 43 39 31 28 34 34 35 37 49 53 45 46 44 41 42 39 40 36 31 22 18 15 22 23 23 25 20 17 14 13 18 20 25 30 26 18 29 18 10
18 18 21 26 31 39 43 35 31 34 36 35 28 44 50 41 45 39 44 45 43 40 33 28 22 15 18 24 23 19 21 18 14 11 12 18 17 23 33 18 17 28 14 6
21 21 25 23 26 32 33 38 34 30 36 34 36 38 46 51 43 39 41 40 37 33 32 31 21 15 17 21 23 19 18 16 13 10 12 13 15 16 22 16 11 6 4 0
26 24 24 27 28 31 28 32 39 27 31 36 32 37 36 27 27 31 32 32 28 28 33 31 24 17 17 21 19 18 18 16 14 12 10 13 13 10 12 13 7 6 7 7
25 28 28 29 27 29 29 30 32 35 31 27 35 38 32 12 13 23 23 18 18 19 24 25 22 22 23 23 21 19 18 17 15 14 9 9 10 12 12 8 10 11 14 14
22 24 29 21 22 27 33 36 31 32 32 32 25 30 22 13 6 18 21 18 24 27 26 19 28 31 25 26 25 25 22 20 16 14 8 8 6 9 11 12 11 13 14 18
28 33 26 24 17 18 21 27 32 36 21 36 30 32 20 19 14 13 20 20 15 16 18 28 28 23 25 27 29 31 28 24 20 13 11 9 6 7 10 11 11 10 13 16
33 30 30 29 23 24 18 23 33 41 33 25 34 31 23 23 20 20 19 20 27 26 28 35 28 29 30 25 22 30 35 38 21 15 11 10 10 10 11 13 15 14 14 16
35 30 29 21 25 25 24 25 25 34 33 37 26 33 26 28 28 29 22 23 21 27 29 26 31 26 26 31 21 31 31 27 20 14 12 12 14 14 13 15 15 17 18 17
36 39 34 21 25 29 25 28 32 24 28 27 38 28 30 33 33 31 28 25 30 26 26 29 34 29 31 32 32 26 27 27 23 14 13 13 16 19 19 19 20 19 22 21
35 39 37 34 32 34 32 37 12 28 24 25 26 31 34 33 30 31 30 28 29 30 34 35 37 39 42 38 37 34 27 26 21 17 16 17 18 20 22 21 23 24 23 23
30 32 28 27 28 32 31 28 26 24 27 27 34 33 28 35 31 38 29 27 26 28 31 37 42 51 49 14 43 40 38 32 26 22 24 23 18 21 23 24 26 26 26 25
17 26 24 24 24 23 26 8 17 15 18 25 18 22 26 27 33 37 32 29 31 32 35 38 42 46 52 51 29 40 37 36 29 28 28 22 24 25 26 27 27 29 29 30
24 21 25 19 17 12 13 11 3 8 12 16 14 19 24 28 36 33 33 33 33 35 31 36 44 54 56 47 32 42 40 33 30 24 26 27 26 27 29 27 28 30 32 34
19 17 23 20 16 14 15 12 12 14 16 18 21 21 24 26 30 25 21 25 28 32 31 34 39 42 49 26 25 25 36 27 21 26 28 28 27 29 31 28 30 33 36 38
16 20 21 22 21 19 17 16 17 18 22 24 26 26 30 32 34 34 31 36 41 40 38 41 41 44 38 28 18 17 15 14 19 26 26 28 32 35 35 34 37 37 38 39
21 21 23 23 23 20 20 19 17 18 21 25 28 30 31 31 33 33 32 35 37 38 41 33 35 46 35 20 15 8 14 20 23 27 32 37 36 37 38 39 37 35 36 36
18 20 20 20 22 24 23 20 18 18 16 19 19 24 27 27 28 32 32 33 30 29 26 28 27 16 20 23 18 20 20 24 29 33 38 38 38 40 38 35 31 29 31 33
7 16 18 21 20 12 10 13 15 18 18 20 23 23 23 26 27 28 26 19 22 25 24 11 9 12 14 19 23 25 29 33 35 37 39 39 39 35 29 28 29 30 30 31
9 7 6 7 15 20 17 17 17 16 18 19 15 16 17 25 27 21 19 18 16 14 10 12 17 20 23 23 27 31 34 36 38 39 37 30 26 26 27 27 28 30 31 30
Wind_Direction
259 261 265 255 253 251 247 247 243 239 237 224 227 235 224 235 236 246 237 218 208 213 245 291 300 305 309 331 355 350 330 337 340 340 357 349 342 345 350 352 5 327 303 291
266 269 254 252 249 249 245 244 242 238 233 223 217 224 227 234 246 242 226 222 209 227 243 262 273 280 281 299 345 345 321 325 333 324 332 339 330 331 326 326 334 345 289 273
272 266 249 248 248 247 247 245 244 242 232 226 219 223 227 233 238 245 245 246 229 223 245 242 254 264 261 285 303 321 320 316 317 315 317 324 320 314 312 317 320 325 304 271
265 258 244 240 239 242 246 247 243 237 230 228 226 228 226 230 241 244 247 245 249 248 253 272 250 263 288 271 289 299 302 304 313 315 316 320 312 308 319 318 311 313 300 266
267 260 240 236 240 245 250 243 244 239 234 231 221 233 227 230 232 241 254 261 253 255 252 264 241 257 271 264 285 299 304 299 312 312 319 320 304 318 320 319 305 307 291 256
282 259 238 229 232 234 233 231 236 232 230 234 221 233 234 231 233 235 252 259 257 258 254 266 244 236 260 263 276 284 297 299 307 314 321 323 324 325 321 316 295 305 278 252
293 256 229 223 230 228 229 230 242 238 238 238 232 230 236 239 238 236 244 247 248 252 256 256 233 238 249 252 269 281 287 292 306 312 316 318 325 328 327 311 274 272 256 245
262 233 215 227 228 232 232 234 244 250 238 237 240 235 232 246 246 247 247 244 243 245 242 229 214 221 219 239 263 276 281 290 306 303 310 325 327 341 344 328 288 241 217 243
245 229 218 232 228 226 226 228 234 247 247 248 231 237 234 238 243 234 238 243 240 240 229 228 222 233 233 243 252 276 283 283 296 290 302 326 334 349 354 350 50 85 222 287
259 257 230 234 237 234 239 235 233 242 248 239 235 235 245 233 251 229 235 250 248 236 224 235 232 218 234 246 257 276 277 280 286 280 295 317 346 355 353 7 36 1 340 328
272 266 257 242 236 252 245 255 256 252 236 243 238 239 243 251 226 222 228 235 230 222 229 229 221 228 243 244 251 267 267 270 271 269 288 308 360 2 343 310 350 11 348 334
268 274 278 276 259 253 251 245 249 248 242 241 241 231 223 225 214 219 229 224 224 220 228 224 230 240 247 246 250 253 245 254 254 252 268 285 333 338 2 3 330 346 352 344
261 273 269 265 274 263 248 241 238 241 248 238 243 236 225 230 215 200 213 200 204 217 223 231 246 262 260 257 260 260 242 236 225 232 251 266 295 323 343 347 359 354 350 351
270 272 267 277 271 272 263 251 243 248 243 246 239 242 233 233 225 217 215 234 229 221 221 232 245 255 247 254 271 262 254 249 235 222 232 258 275 294 313 318 323 327 334 334
265 264 267 270 276 267 248 249 225 244 255 243 250 250 244 233 228 232 243 219 238 249 246 254 210 246 236 237 258 263 261 267 251 232 230 247 272 286 293 304 313 321 320 325
261 268 272 266 281 292 271 269 220 227 241 243 244 249 238 234 232 238 245 251 247 242 250 253 248 234 233 245 260 259 254 232 238 226 233 238 264 274 287 300 307 312 315 310
255 259 267 274 277 275 270 268 210 206 215 224 237 246 252 244 249 246 245 251 256 252 256 254 264 250 248 237 243 246 226 217 219 229 232 234 249 270 285 295 302 308 305 301
257 259 260 266 272 267 267 247 233 192 207 229 243 246 261 254 264 243 250 246 254 257 253 264 273 263 257 228 218 222 211 208 209 220 231 236 250 270 279 289 296 301 298 298
248 247 249 257 269 268 252 278 228 195 223 237 254 257 258 254 259 241 241 246 244 250 256 263 268 277 281 284 210 216 196 199 198 211 235 246 259 267 274 284 291 290 293 296
259 257 244 241 260 274 269 326 156 247 257 230 244 266 274 251 238 223 231 242 252 252 266 272 295 287 299 281 238 198 213 202 197 214 232 247 256 271 279 286 286 287 291 292
255 241 230 229 240 249 268 283 291 261 257 266 269 270 276 280 281 286 268 275 277 278 276 288 293 291 291 269 199 209 212 185 190 222 237 251 265 275 280 283 283 287 286 284
246 225 228 223 234 246 259 265 266 263 258 262 263 265 266 269 277 285 291 288 281 283 288 290 294 295 300 263 186 192 175 194 219 236 251 262 268 274 281 283 285 286 280 280
235 228 228 231 240 252 265 268 261 253 252 254 264 274 278 282 281 283 278 290 277 277 282 301 294 299 288 214 170 184 207 227 243 254 258 262 270 277 282 284 287 284 282 281
238 228 223 235 239 247 257 261 266 271 267 255 259 267 268 278 277 279 279 282 273 270 281 278 300 278 217 213 211 232 245 248 251 256 260 267 276 282 282 284 285 284 278 280
237 220 231 230 231 230 249 243 254 257 249 261 277 277 277 274 270 271 264 244 249 254 249 199 222 220 218 226 237 244 250 256 263 268 275 282 287 284 281 283 283 283 278 277
247 229 218 253 227 239 255 262 271 274 257 270 265 270 243 227 234 230 220 204 204 206 207 214 224 232 243 250 264 269 270 274 276 280 281 281 283 285 286 285 284 280 278 279